Location: Moscow
(55.7500°N, 37.5830°E)
Time: 08:03:22
(UTC+03:00)

A-11 Canister half - Pass Details

Date: 02 December 2021
Orbit: 1524 x 1684 km, 47.3° (Epoch: 17 January)

Event Time Altitude Azimuth Distance (km) Brightness Sun altitude
Exits shadow 03:06:17 35° 127° (SE) 2,458 10.0 -44.3°
Drops below altitude 10° 03:13:02 10° 89° (E) 3,886 11.6 -43.4°
Sets 03:16:24 0° 82° (E) 4,853 12.3 -43.0°
